GFSCGP_850_temp_147.txt.gz
Temp
4 5 5 7 9 8 8 8 9 9 10 11 11 10 10 9 10 10 11 11 12 13 13 13 13 12 12 12 12 12 12 11 11 11 11 11 10 10 10 10 9 9 9 9
5 5 4 6 8 9 9 9 8 9 9 11 11 11 10 9 10 10 11 12 12 13 13 13 13 13 13 12 12 12 12 11 11 11 10 10 10 10 10 9 9 8 9 8
5 5 5 8 8 9 9 9 7 10 10 9 11 12 11 10 10 12 12 12 13 13 13 13 13 13 13 13 12 12 11 11 10 10 10 10 10 10 9 9 8 9 8 8
4 6 6 9 8 9 10 9 9 9 10 11 9 12 11 10 10 10 12 12 13 13 13 13 13 13 13 13 12 12 11 11 10 10 9 10 10 10 9 9 8 9 8 8
5 4 7 9 9 10 9 8 8 8 8 9 10 10 12 10 11 11 11 13 14 14 13 14 14 14 13 13 12 12 11 11 10 10 10 10 10 9 9 9 9 8 8 8
6 6 7 8 7 8 6 8 7 6 8 9 7 10 12 10 11 11 11 12 13 13 13 13 14 14 14 13 12 11 11 11 10 9 10 10 10 9 9 9 8 8 8 7
6 7 7 8 8 9 9 7 5 7 6 8 5 9 12 10 9 9 10 10 12 12 13 13 13 13 13 13 12 11 11 10 10 10 10 9 9 9 9 8 8 8 8 7
6 7 7 7 8 9 8 8 6 8 8 8 6 9 13 8 7 8 9 9 10 11 11 12 12 12 12 12 11 11 11 10 10 10 10 9 9 9 8 8 8 8 7 7
6 6 7 8 8 9 9 7 7 5 4 8 6 8 9 8 7 7 8 9 9 10 11 11 11 11 11 11 11 11 11 10 10 10 9 9 9 8 8 8 8 8 7 7
7 6 7 8 8 8 9 7 8 6 8 10 7 8 9 7 7 6 7 8 9 9 10 10 11 11 11 11 11 11 11 11 10 10 9 9 8 8 8 8 8 7 7 7
7 7 8 9 7 8 8 8 6 6 6 9 9 11 6 7 7 7 7 9 9 9 10 10 10 11 11 10 10 11 11 11 10 10 9 9 8 8 8 8 7 7 7 6
7 6 7 8 7 7 7 9 7 8 10 5 7 11 6 6 6 7 8 9 9 9 10 10 10 10 10 10 10 10 10 9 9 9 9 8 8 8 8 8 7 7 7 7
8 6 5 8 8 7 8 7 6 5 5 7 9 12 6 5 5 8 8 8 9 9 9 10 10 10 10 10 9 9 9 8 8 8 8 8 7 7 7 7 7 7 7 7
8 5 7 6 8 7 8 7 6 7 7 8 7 10 8 7 6 6 7 9 9 9 9 10 9 9 9 9 9 8 8 7 7 7 7 7 7 7 7 7 7 7 7 7
7 8 5 6 7 7 8 7 6 7 8 10 10 8 9 7 6 7 9 9 8 9 9 9 9 9 8 8 8 7 7 7 7 7 7 7 7 7 7 7 7 7 7 7
5 6 5 4 6 6 7 7 5 5 7 6 7 7 6 8 8 7 8 8 9 9 9 9 9 8 8 7 7 6 6 6 6 6 7 7 7 7 7 7 7 7 6 6
5 4 4 8 4 6 8 6 5 5 5 6 8 9 5 5 5 8 9 9 10 10 10 9 8 7 7 6 6 6 6 6 6 6 6 7 7 7 7 7 7 6 7 6
4 3 2 3 6 6 9 6 6 6 6 5 6 7 6 8 8 9 10 10 10 9 9 8 7 7 6 6 6 6 6 6 6 6 6 7 7 7 7 7 6 6 6 6
2 3 2 4 4 7 7 5 5 7 9 5 6 5 6 6 6 7 9 10 10 9 8 7 7 6 6 6 6 6 6 6 6 6 6 6 6 6 6 6 6 6 5 5
2 2 5 3 8 9 9 7 6 6 8 6 5 4 3 5 6 5 8 8 8 8 7 7 6 6 5 5 5 5 6 6 6 6 6 6 6 6 6 5 5 4 4 3
3 2 3 3 5 5 5 6 6 10 10 6 5 4 4 4 7 8 8 8 7 7 6 6 5 5 5 5 5 5 6 6 6 6 6 5 5 5 4 4 3 3 2 2
3 2 2 2 4 6 6 5 8 7 8 7 6 5 5 7 8 8 7 7 6 6 5 5 4 4 5 5 5 5 5 5 5 5 5 5 4 4 3 2 2 1 1 1
3 3 3 3 5 6 7 7 8 8 8 7 7 7 6 7 6 6 6 6 5 5 4 4 4 4 4 5 5 5 4 4 5 4 4 4 3 2 2 1 1 0 0 -0
1 2 3 4 6 3 7 8 7 8 8 8 8 7 7 7 6 6 6 5 5 4 4 4 4 4 4 4 4 4 3 4 4 4 3 2 2 1 1 1 0 -0 -0 -0
3 2 3 2 4 5 7 8 8 8 7 8 8 7 7 7 7 6 5 4 4 4 4 4 4 4 4 4 3 3 3 3 3 2 2 1 1 0 0 -0 -0 -1 -1 -1
1 2 4 6 7 7 7 8 8 7 7 7 7 7 6 6 6 5 4 4 3 3 3 3 4 4 3 3 3 3 2 2 1 1 1 1 0 -0 -1 -1 -1 -1 -1 -1

GFSCGP_850_temp_150.txt.gz
Temp
5 5 5 5 7 13 14 15 14 14 13 15 16 16 14 13 13 14 14 13 12 12 11 12 12 13 12 13 12 12 12 12 12 11 11 11 11 11 10 9 10 9 9 9
5 6 6 5 7 10 14 14 15 12 13 16 15 15 15 13 14 14 14 13 13 12 11 12 12 12 12 13 12 12 12 12 12 11 11 11 10 10 9 9 9 9 9 8
6 6 6 7 6 10 13 15 13 13 13 14 16 15 14 14 13 12 13 13 13 12 12 12 12 13 13 12 12 12 12 12 11 11 11 11 10 10 9 9 9 9 8 9
5 5 5 6 5 10 13 14 14 14 16 15 14 16 15 16 14 14 14 13 13 11 12 13 13 13 13 13 12 12 12 11 11 11 11 10 10 9 9 9 9 9 8 8
5 4 6 5 8 12 13 13 14 15 17 15 15 17 18 14 15 16 15 14 13 12 13 13 13 13 13 13 12 12 12 11 11 10 10 10 10 9 9 9 9 8 8 8
6 5 6 8 9 10 11 13 12 14 15 15 14 15 17 16 17 17 17 15 14 12 13 13 13 13 13 13 12 12 11 11 10 10 10 10 9 9 9 9 9 9 8 8
6 8 9 9 11 11 12 14 10 12 12 15 10 14 18 16 14 16 16 15 13 12 13 13 13 13 13 13 13 12 12 11 10 10 10 10 9 9 9 9 9 9 8 8
7 8 9 9 10 12 13 13 13 11 13 13 10 16 18 13 11 10 11 11 10 10 12 12 13 13 13 13 12 12 11 10 10 10 10 9 9 9 9 9 9 8 8 8
8 8 9 9 10 11 12 13 11 12 10 15 14 14 13 11 10 10 10 9 9 9 10 11 11 12 12 12 12 11 11 10 10 10 10 9 9 9 9 8 8 8 7 7
10 10 9 10 10 10 12 11 13 12 13 15 13 14 18 11 12 11 10 10 9 8 9 10 11 11 11 11 11 11 11 11 10 10 9 9 9 8 8 8 8 7 7 7
10 11 10 10 10 12 11 12 11 12 12 16 16 17 14 13 12 11 11 10 9 8 9 10 10 10 10 10 11 11 11 10 10 9 9 9 9 8 8 8 8 8 8 7
10 11 10 10 9 9 10 12 13 14 13 12 14 17 11 11 12 12 11 10 9 8 9 10 10 10 10 10 10 10 10 9 9 9 9 8 8 8 8 8 8 8 7 7
10 10 10 10 10 9 11 10 10 11 12 13 15 16 11 10 10 10 11 9 8 8 9 9 9 9 10 10 9 9 9 9 9 8 8 8 8 8 8 7 7 7 7 7
9 10 11 12 12 11 11 10 10 12 14 14 15 15 13 11 11 10 10 9 9 9 9 8 9 9 9 9 9 9 9 8 8 8 7 7 7 7 7 7 7 7 7 7
9 10 8 9 8 9 10 11 10 11 13 15 14 14 15 14 12 11 10 9 9 8 7 9 9 8 9 9 8 8 8 8 7 7 7 7 7 7 7 7 7 7 7 7
8 9 8 8 8 8 10 10 10 10 10 11 11 13 15 12 12 10 10 9 8 8 8 9 8 8 8 8 8 8 7 7 7 7 7 7 7 7 7 7 7 7 7 7
9 9 9 10 8 9 11 12 10 11 11 13 13 16 12 11 11 11 10 9 9 8 9 9 8 8 8 8 7 7 7 6 6 6 7 7 7 7 7 7 7 6 6 6
8 8 7 9 9 10 12 8 9 11 11 11 11 11 12 11 10 10 10 9 9 9 9 9 9 8 8 7 7 6 6 6 6 6 6 7 6 6 6 6 6 6 6 5
6 8 8 9 10 12 10 8 9 11 13 11 11 12 10 7 8 9 9 10 9 9 10 9 8 8 7 7 6 6 6 6 6 6 6 6 6 6 5 5 5 5 5 4
6 7 10 8 10 12 11 8 7 8 14 9 8 9 10 7 12 15 10 9 9 9 9 8 8 7 6 6 5 5 6 6 6 5 5 5 5 5 5 5 5 4 3 3
7 7 9 9 10 12 10 7 7 12 13 8 6 6 7 9 11 8 8 8 8 8 8 7 7 6 5 5 5 5 5 5 5 5 5 5 5 5 4 4 3 2 2 2
9 9 9 8 9 10 7 6 11 10 7 7 6 5 5 6 8 7 6 7 7 7 7 6 6 5 5 5 5 5 5 5 5 5 4 4 4 4 3 2 2 2 1 0
7 9 10 9 12 8 6 8 8 8 8 8 7 7 6 7 6 6 6 6 6 6 5 5 4 4 4 4 4 4 4 4 4 4 4 4 3 3 2 1 1 0 -0 -0
5 4 8 7 9 8 8 8 8 8 8 8 8 7 7 8 7 6 5 5 5 4 4 4 4 4 4 4 4 4 4 4 4 4 3 3 2 2 1 0 -0 -1 -1 -1
7 4 7 7 9 7 7 8 8 8 7 7 8 7 7 7 6 6 6 5 4 4 4 4 4 3 3 3 3 3 3 3 3 3 2 1 1 0 -0 -0 -1 -1 -1 -1
4 8 9 12 9 10 8 7 8 7 7 7 7 7 6 6 6 6 5 4 4 3 3 3 3 3 3 3 3 2 2 2 1 1 1 0 -0 -0 -1 -1 -1 -1 -1 -1

GFSCGP_850_temp_153.txt.gz
Temp
6 6 6 7 7 7 5 8 14 16 17 16 16 18 17 16 16 17 16 15 14 13 13 12 11 11 12 12 13 13 12 13 12 12 11 10 9 11 11 11 10 10 9 9
5 6 8 7 5 5 5 8 15 16 15 16 17 18 17 16 17 17 17 16 15 13 12 11 10 12 12 13 12 12 12 12 11 12 11 10 10 11 10 11 10 10 9 9
6 6 7 6 4 5 8 12 15 14 15 17 18 17 16 16 17 17 17 16 15 14 13 11 10 12 12 12 13 13 12 12 11 12 11 11 11 10 11 10 10 9 9 9
5 5 6 7 6 5 12 16 16 15 15 15 18 15 16 16 16 16 16 16 16 15 13 12 11 11 13 13 13 12 12 12 11 11 11 11 10 9 10 10 10 9 9 9
6 5 6 7 8 9 11 15 14 16 16 17 17 16 18 17 16 16 16 16 16 15 14 13 11 13 13 13 13 13 12 11 11 11 11 11 10 10 10 10 10 9 9 9
6 5 5 7 8 11 13 14 14 16 17 14 17 18 19 18 18 17 17 16 16 15 13 13 12 12 12 13 13 12 12 11 11 11 11 10 10 10 10 10 9 8 8 9
7 6 8 8 10 12 12 13 11 12 11 14 16 16 19 19 19 20 18 17 16 15 14 12 12 13 13 13 13 12 11 11 11 11 11 10 10 10 10 9 8 8 8 7
8 8 9 11 12 13 14 13 12 11 13 14 13 16 17 16 16 14 19 18 16 14 13 12 12 13 13 13 12 12 12 11 11 11 10 10 10 9 9 8 8 8 8 8
10 9 11 11 12 12 13 12 12 13 14 15 15 17 14 13 13 14 14 14 13 13 12 10 11 12 12 12 12 12 11 11 10 10 10 10 9 9 9 8 8 8 8 8
11 10 11 12 12 13 13 13 11 12 13 15 15 17 17 13 13 14 13 13 12 11 10 9 10 10 10 11 11 11 10 10 10 10 10 9 8 8 8 8 8 8 8 8
12 13 11 12 12 13 13 14 13 14 14 16 16 17 16 16 15 13 13 13 11 10 10 9 8 10 11 11 11 10 10 10 10 10 9 9 9 8 8 8 8 8 8 8
12 12 11 12 11 11 11 13 14 15 15 16 17 16 14 14 16 14 13 12 11 10 9 8 9 10 10 10 10 10 10 10 10 9 9 9 8 8 8 8 8 8 8 8
11 12 11 11 12 11 12 13 12 14 15 15 16 16 14 13 15 14 13 12 11 10 9 9 8 8 8 9 9 9 9 9 9 9 8 8 8 8 8 8 8 8 8 7
9 12 12 11 12 12 12 12 12 13 14 15 17 17 14 13 13 14 13 12 11 10 9 9 9 8 7 8 9 9 9 9 8 8 7 7 7 7 7 7 8 8 7 7
11 11 10 11 10 10 11 12 13 13 15 15 15 16 16 14 14 13 13 12 11 10 9 9 9 8 7 9 9 9 9 8 8 7 7 7 7 7 7 7 7 7 7 7
10 10 10 9 10 10 10 13 13 12 13 13 14 15 17 16 14 13 13 12 11 10 9 9 9 8 7 9 8 8 8 7 7 7 7 7 7 7 7 7 7 7 7 7
10 10 10 11 10 11 11 13 13 13 13 14 14 16 16 14 15 14 13 12 11 10 9 9 8 8 8 8 8 7 7 7 6 6 6 7 7 7 7 6 6 6 6 6
10 10 9 10 11 10 14 10 11 14 14 14 15 14 14 13 14 13 13 12 11 11 9 8 7 7 8 8 7 7 7 6 6 6 6 6 6 6 6 6 6 6 6 5
9 11 11 10 12 14 13 10 11 12 15 14 13 14 14 10 10 11 12 12 11 10 9 8 7 8 8 8 7 7 6 6 6 6 6 6 6 6 5 5 5 5 5 4
8 9 11 11 11 13 13 10 9 11 14 12 11 12 12 11 13 16 10 10 11 9 8 7 7 8 8 7 6 6 5 5 5 6 5 5 5 5 5 5 4 4 3 3
9 9 10 11 11 13 11 10 9 13 13 10 9 9 9 11 10 8 7 7 7 7 7 8 8 7 6 6 5 5 5 5 5 5 5 5 5 4 4 4 4 3 2 2
10 10 10 11 11 11 9 8 12 11 9 9 8 7 8 8 6 6 5 5 5 6 7 7 7 6 6 5 5 5 5 5 5 5 5 4 4 4 3 3 2 2 1 1
9 11 12 12 13 11 9 10 9 9 10 8 8 6 6 6 5 4 4 4 5 6 6 6 6 5 5 4 4 4 4 4 4 4 4 3 3 3 2 2 1 1 1 0
9 8 9 9 13 11 10 9 8 8 8 8 8 7 6 6 5 4 4 4 5 6 5 5 4 4 4 4 4 4 4 4 4 4 3 3 2 2 2 1 1 -0 -0 -1
9 7 10 10 12 11 10 9 9 8 7 7 8 7 6 6 5 5 5 5 5 5 4 4 3 3 3 3 3 3 4 4 3 3 2 2 1 1 1 0 -0 -1 -1 -1
7 9 10 13 12 12 9 7 8 7 7 7 7 7 6 6 6 6 5 4 4 4 3 3 3 3 3 3 3 3 3 2 2 2 1 1 1 0 -0 -1 -1 -1 -1 -1

GFSCGP_850_temp_156.txt.gz
Temp
6 5 5 6 6 7 7 7 8 9 11 8 9 14 15 16 16 16 16 15 14 13 13 13 12 11 11 12 13 14 13 13 13 13 12 12 12 11 12 11 11 11 10 11
5 5 7 8 8 7 7 6 6 8 9 8 12 14 16 14 15 16 16 15 14 13 13 12 11 11 12 13 13 13 13 12 12 12 11 12 11 11 11 11 11 10 10 10
5 7 5 7 6 5 5 5 7 7 10 10 13 13 16 15 16 17 16 15 14 13 12 12 11 11 12 13 13 13 13 12 12 12 12 11 10 11 11 11 11 10 10 10
4 5 6 6 5 5 6 7 7 8 11 10 14 9 12 14 14 15 16 15 14 13 12 11 11 12 13 13 13 13 12 12 12 12 12 11 11 11 11 11 11 10 10 10
6 5 6 6 6 6 6 11 10 10 12 12 13 10 13 14 14 14 14 16 14 13 12 12 12 12 13 13 13 12 12 12 12 12 12 11 11 10 10 10 10 10 10 9
7 5 5 6 9 8 8 10 9 10 11 9 12 14 12 13 14 14 14 16 15 14 13 12 12 13 13 12 12 12 12 12 12 12 12 11 10 10 10 10 9 9 9 9
7 6 8 7 8 9 9 8 8 8 7 8 13 13 14 15 15 15 14 15 16 15 14 13 12 12 12 12 12 12 12 12 12 12 11 11 10 10 10 9 9 9 8 8
7 8 8 10 9 10 10 11 7 9 8 8 11 11 13 12 14 17 16 15 16 14 13 13 12 12 12 12 12 12 12 12 11 11 11 10 10 10 9 9 9 8 8 8
8 8 11 11 11 11 12 9 10 9 10 9 9 12 13 12 12 14 16 16 15 14 13 13 12 12 12 12 12 12 12 11 11 11 10 10 9 9 9 9 9 9 8 8
10 8 11 12 12 12 12 11 9 8 9 11 9 13 9 10 11 12 11 12 13 13 12 12 11 11 11 12 12 11 11 11 10 10 10 9 9 9 9 9 8 8 8 8
10 10 10 11 11 10 11 11 11 11 10 9 10 11 12 10 11 10 10 12 12 11 11 10 10 10 11 11 11 11 10 10 10 10 9 9 9 9 8 8 8 8 7 7
11 9 9 11 11 11 11 12 11 10 11 9 11 10 12 12 11 11 12 12 11 10 9 9 9 10 10 10 10 10 10 10 10 10 9 9 9 8 8 8 7 7 7 7
9 10 8 10 10 11 11 11 11 11 11 12 11 11 12 12 11 13 11 11 10 9 9 9 9 9 9 9 10 10 10 10 10 9 9 8 8 8 7 7 7 7 7 7
8 10 10 8 7 9 11 11 12 12 9 12 11 12 11 12 11 10 11 11 10 9 8 8 8 8 9 9 9 9 10 10 9 8 8 7 7 7 7 7 7 7 7 7
9 8 8 9 10 10 10 11 12 12 11 12 11 12 14 10 10 11 12 11 10 9 9 9 8 8 8 9 9 10 9 9 8 8 7 7 7 7 7 7 7 7 7 7
9 7 9 8 10 9 9 10 12 12 12 11 12 13 12 13 13 12 12 11 10 9 9 9 9 8 9 9 9 9 9 8 7 7 7 6 6 6 7 7 7 7 7 7
9 8 7 8 10 9 8 10 11 12 12 13 13 13 12 12 11 12 12 11 10 10 9 9 9 8 9 9 9 8 8 7 7 6 6 6 6 7 6 6 6 6 6 6
9 8 7 6 9 7 11 9 10 12 12 11 12 12 11 11 12 13 13 12 11 10 9 9 9 8 8 8 8 8 7 7 6 6 6 6 6 6 6 6 6 6 6 6
8 8 7 6 7 10 12 10 10 11 13 12 12 13 11 11 11 12 13 12 11 10 10 9 9 8 8 8 8 7 7 6 6 6 6 6 6 6 6 6 5 5 5 5
7 7 7 8 8 10 12 10 10 10 11 10 10 10 11 10 9 8 12 12 11 10 9 9 8 8 8 8 7 6 6 5 5 6 5 5 5 5 5 5 5 5 4 4
6 7 6 6 7 9 10 9 9 11 10 9 9 9 9 8 7 9 10 10 10 9 8 7 7 7 7 7 6 6 5 5 5 5 5 5 5 5 5 4 4 3 3 3
7 6 6 7 8 6 9 9 10 9 9 9 8 7 7 7 7 7 8 8 8 8 7 6 6 6 6 5 5 5 5 5 5 5 5 5 4 4 4 3 3 3 2 1
6 8 8 9 8 9 9 10 9 10 9 8 8 7 7 7 6 6 6 6 6 6 5 5 6 5 5 4 4 5 4 4 4 4 4 4 4 3 3 2 2 1 1 0
8 8 6 7 11 9 10 10 9 9 9 8 8 7 7 6 5 4 4 4 4 4 4 4 5 5 4 4 4 4 4 4 4 4 4 3 3 3 2 1 1 -0 -0 -1
8 6 7 7 8 10 10 10 10 9 8 8 7 7 6 6 5 4 4 4 4 4 4 4 4 4 4 4 4 4 4 4 4 3 3 3 2 1 1 1 0 -0 -1 -1
6 6 7 8 10 10 8 9 9 9 8 7 7 6 6 6 6 5 4 4 4 4 4 3 3 4 4 4 4 4 4 4 3 3 2 2 1 1 0 0 -0 -0 -1 -1

GFSCGP_850_temp_159.txt.gz
Temp
4 5 3 5 5 6 6 5 5 7 10 9 8 9 10 11 12 13 14 14 13 13 13 13 12 12 12 13 13 13 14 13 14 13 13 12 13 12 12 11 12 11 11 10
5 4 6 7 5 5 5 5 5 6 8 8 8 8 10 11 11 14 13 13 13 13 13 12 12 12 12 12 13 13 13 13 13 13 13 12 12 12 12 11 11 11 10 10
5 6 6 6 5 5 6 6 6 6 8 9 8 8 8 11 13 14 14 14 14 13 13 12 11 11 11 12 13 13 13 13 13 13 12 12 11 12 12 11 11 11 10 10
4 5 5 5 4 4 5 7 6 7 6 7 8 7 10 11 13 11 13 13 12 12 12 12 11 11 11 12 13 13 13 13 13 12 12 11 11 11 11 11 11 10 10 9
6 5 5 5 5 5 6 6 5 6 7 7 7 7 12 12 12 12 12 12 12 13 12 12 12 12 12 12 13 13 12 12 12 12 11 11 11 11 11 11 11 10 9 9
6 5 5 6 6 7 7 7 8 7 8 8 8 8 9 10 13 11 12 12 12 12 12 12 12 12 12 12 12 12 12 12 12 12 11 11 11 10 10 10 10 9 10 9
7 6 7 7 6 7 6 6 7 8 7 6 9 10 11 13 13 12 12 12 12 12 12 12 12 11 11 12 12 12 12 12 12 11 11 11 10 10 10 10 9 9 9 9
6 6 8 7 7 9 7 8 7 8 7 7 10 9 13 11 13 15 14 13 12 12 12 12 12 12 11 12 12 12 12 12 11 11 11 10 10 10 10 10 9 9 8 8
6 6 10 9 10 11 10 8 9 8 8 8 7 11 12 10 11 12 13 12 12 12 13 13 12 12 12 12 12 12 12 11 11 11 10 10 10 10 10 9 9 8 8 8
8 7 10 11 10 10 10 10 8 7 8 10 8 10 9 10 10 11 10 11 12 13 13 13 12 12 12 12 11 11 11 11 10 10 10 10 10 9 9 9 8 8 8 8
9 8 8 10 10 10 10 8 9 8 7 8 9 10 11 10 9 11 11 12 12 13 13 12 12 11 11 11 11 11 10 10 9 9 9 10 9 9 8 7 7 7 7 7
9 8 5 9 10 10 10 10 10 9 8 7 7 10 9 9 9 9 9 9 11 12 12 12 11 11 10 10 10 10 10 9 9 9 9 9 8 8 7 7 7 7 7 7
8 7 5 8 8 9 9 11 11 10 7 8 8 10 10 7 8 9 8 9 10 11 10 10 9 9 9 9 9 9 9 9 9 9 9 8 8 8 7 7 7 7 7 7
8 7 7 5 8 7 8 10 11 10 7 9 9 10 10 10 8 7 9 9 9 9 9 9 8 8 9 9 9 9 9 9 9 9 8 8 8 7 7 7 7 7 7 7
8 7 7 7 7 8 8 9 10 11 10 9 10 10 10 9 7 8 9 9 8 8 8 8 8 8 8 8 9 9 9 9 8 8 8 8 7 7 7 7 7 7 7 7
8 7 8 6 8 7 7 8 9 10 11 10 11 12 10 10 9 8 9 8 8 8 8 8 8 8 8 9 9 9 9 8 8 8 7 7 7 6 7 7 7 6 6 6
7 6 5 6 7 7 7 8 9 10 10 12 12 12 11 9 9 8 9 9 9 9 8 8 8 8 9 9 9 9 8 8 8 7 7 6 6 6 6 6 6 6 6 6
6 7 4 4 6 6 9 9 9 11 11 11 12 12 10 10 11 11 11 10 9 9 9 8 8 8 8 8 8 8 8 7 7 6 6 6 6 6 6 6 6 6 6 6
5 6 5 5 5 7 10 10 10 10 11 9 11 11 10 11 11 11 11 11 11 10 9 9 9 9 8 8 8 7 7 7 6 6 6 6 6 5 5 5 5 5 5 5
6 5 5 5 7 8 10 9 9 9 10 8 9 9 9 10 8 7 11 11 11 10 9 9 8 8 8 7 7 7 6 6 5 5 5 5 5 5 5 5 5 4 4 4
4 5 5 5 5 7 9 8 9 11 10 8 8 8 9 7 7 8 10 11 11 10 9 8 8 7 7 7 7 6 6 5 5 5 5 5 5 5 4 4 4 3 3 2
5 4 4 4 5 5 9 9 10 8 8 8 7 7 7 7 7 8 10 10 9 9 8 7 7 7 6 6 6 5 5 5 5 4 4 4 4 4 4 3 3 2 1 1
6 6 6 5 6 8 9 9 9 10 9 8 7 7 7 7 6 7 7 7 7 7 7 7 7 6 5 5 4 5 4 4 4 4 4 4 4 3 2 2 2 2 1 1
7 6 6 7 8 7 9 9 10 9 9 8 8 7 7 6 6 6 6 6 6 6 6 6 5 5 5 4 4 4 4 4 4 4 4 3 3 2 2 1 1 0 0 -0
7 6 5 5 6 8 9 10 9 9 8 8 7 7 7 6 5 5 5 5 5 5 5 5 5 5 4 4 4 4 4 4 3 3 3 2 2 2 1 1 0 -0 -1 -1
5 6 7 7 8 8 8 9 9 9 9 8 7 7 6 6 6 5 4 4 4 4 4 4 4 4 4 4 4 4 3 3 3 2 2 2 1 1 0 -0 -0 -1 -1 -2